| time (UTC) | temp F | wind direction | speed MPH | gust MPH | rain 1hr in | rain 24hr in | rain mn in | humidity % | barometer mb |
| 20260505111421 | 48 | 328 | 0.0 | 2.0 | 0.00 | 0.51 | 0.51 | 81 | |
| 20260505110917 | 48 | 320 | 0.0 | 3.0 | 0.00 | 0.51 | 0.51 | 80 | |
| 20260505110414 | 48 | 321 | 0.0 | 0.0 | 0.00 | 0.51 | 0.51 | 82 | |
| 20260505101845 | 48 | 328 | 1.0 | 7.0 | 0.00 | 0.50 | 0.50 | 82 | |
| 20260505101339 | 48 | 319 | 0.0 | 2.0 | 0.00 | 0.50 | 0.50 | 82 | |
| 20260505100836 | 48 | 295 | 1.0 | 2.0 | 0.00 | 0.50 | 0.50 | 82 | |
| 20260505100333 | 48 | 311 | 2.0 | 3.0 | 0.00 | 0.50 | 0.50 | 82 | |
| 20260505095828 | 47 | 356 | 2.0 | 5.0 | 0.00 | 0.50 | 0.50 | 83 | |
| 20260505095326 | 47 | 273 | 1.0 | 5.0 | 0.00 | 0.50 | 0.50 | 84 | |
| 20260505094822 | 47 | 282 | 1.0 | 3.0 | 0.00 | 0.50 | 0.50 | 84 | |
| 20260505094319 | 47 | 309 | 1.0 | 2.0 | 0.00 | 0.50 | 0.50 | 84 | |
| 20260505093814 | 47 | 313 | 1.0 | 3.0 | 0.00 | 0.50 | 0.50 | 85 | |
| 20260505093312 | 46 | 307 | 1.0 | 2.0 | 0.00 | 0.50 | 0.50 | 85 | |
| 20260505092808 | 46 | 314 | 1.0 | 2.0 | 0.00 | 0.50 | 0.50 | 85 | |
| 20260505092307 | 46 | 292 | 1.0 | 2.0 | 0.00 | 0.50 | 0.50 | 85 | |
| 20260505091804 | 46 | 312 | 1.0 | 2.0 | 0.00 | 0.50 | 0.50 | 86 | |
| 20260505091302 | 46 | 324 | 0.0 | 1.0 | 0.00 | 0.50 | 0.50 | 87 | |
| 20260505090800 | 46 | 335 | 0.0 | 5.0 | 0.00 | 0.50 | 0.50 | 86 | |
| 20260505090258 | 46 | 312 | 1.0 | 3.0 | 0.00 | 0.50 | 0.50 | 86 | |
| 20260505085755 | 46 | 345 | 3.0 | 3.0 | 0.00 | 0.50 | 0.50 | 87 | |
| 20260505085253 | 46 | 259 | 2.0 | 2.0 | 0.00 | 0.50 | 0.50 | 88 | |
| 20260505084750 | 46 | 311 | 1.0 | 3.0 | 0.00 | 0.50 | 0.50 | 88 | |
| 20260505084249 | 46 | 196 | 1.0 | 6.0 | 0.00 | 0.50 | 0.50 | 88 | |
| 20260505083746 | 46 | 326 | 3.0 | 7.0 | 0.00 | 0.50 | 0.50 | 89 | |
| 20260505083242 | 46 | 278 | 2.0 | 3.0 | 0.00 | 0.50 | 0.50 | 88 | |
| 20260505082739 | 46 | 273 | 3.0 | 3.0 | 0.00 | 0.50 | 0.50 | 88 | |
| 20260505082236 | 46 | 266 | 4.0 | 6.0 | 0.00 | 0.50 | 0.50 | 89 | |
| 20260505081732 | 47 | 278 | 1.0 | 5.0 | 0.00 | 0.50 | 0.50 | 89 | |
| 20260505081229 | 47 | 283 | 2.0 | 5.0 | 0.07 | 0.50 | 0.50 | 89 | |
| 20260505080726 | 47 | 270 | 4.0 | 7.0 | 0.19 | 0.50 | 0.50 | 89 | |
| 20260505080221 | 47 | 333 | 3.0 | 7.0 | 0.31 | 0.49 | 0.49 | 89 | |
| 20260505075717 | 48 | 344 | 6.0 | 7.0 | 0.26 | 0.46 | 0.46 | 89 | |
| 20260505075215 | 48 | 309 | 1.0 | 3.0 | 0.31 | 0.43 | 0.43 | 90 | |
| 20260505074712 | 48 | 328 | 0.0 | 0.0 | 0.35 | 0.41 | 0.41 | 90 | |
| 20260505074209 | 48 | 320 | 0.0 | 3.0 | 0.42 | 0.38 | 0.38 | 89 | |
| 20260505073707 | 49 | 319 | 0.0 | 1.0 | 0.42 | 0.35 | 0.35 | 90 | |
| 20260505073205 | 49 | 334 | 0.0 | 0.0 | 0.31 | 0.30 | 0.30 | 88 | |
| 20260505072700 | 49 | 316 | 0.0 | 0.0 | 0.35 | 0.28 | 0.28 | 87 | |
| 20260505072156 | 49 | 318 | 0.0 | 1.0 | 0.28 | 0.25 | 0.25 | 86 | |
| 20260505071652 | 50 | 273 | 1.0 | 3.0 | 0.26 | 0.22 | 0.22 | 84 | |
| 20260505071150 | 50 | 250 | 3.0 | 5.0 | 0.19 | 0.19 | 0.19 | 84 | |
| 20260505070647 | 51 | 243 | 2.0 | 3.0 | 0.12 | 0.17 | 0.17 | 84 | |
| 20260505070143 | 51 | 244 | 2.0 | 6.0 | 0.05 | 0.16 | 0.16 | 83 | |
| 20260505065639 | 51 | 311 | 1.0 | 2.0 | 0.00 | 0.15 | 0.15 | 83 | |
| 20260505065136 | 51 | 267 | 1.0 | 2.0 | 0.07 | 0.15 | 0.15 | 83 | |
| 20260505064633 | 51 | 323 | 0.0 | 1.0 | 0.07 | 0.15 | 0.15 | 83 | |
| 20260505064131 | 51 | 324 | 0.0 | 3.0 | 0.00 | 0.14 | 0.14 | 84 | |
| 20260505063628 | 53 | 308 | 0.0 | 1.0 | 0.00 | 0.14 | 0.14 | 88 | |
| 20260505063124 | 53 | 327 | 0.0 | 0.0 | 0.00 | 0.14 | 0.14 | 88 | |
| 20260505062621 | 54 | 314 | 0.0 | 0.0 | 0.00 | 0.14 | 0.14 | 90 | |
| 20260505062118 | 54 | 328 | 0.0 | 0.0 | 0.05 | 0.14 | 0.14 | 89 | |
| 20260505061615 | 54 | 309 | 0.0 | 0.0 | 0.05 | 0.14 | 0.14 | 88 | |
| 20260505061114 | 54 | 319 | 0.0 | 0.0 | 0.07 | 0.13 | 0.13 | 89 | |
| 20260505060611 | 55 | 319 | 0.0 | 0.0 | 0.12 | 0.13 | 0.13 | 88 | |
| 20260505060107 | 55 | 330 | 0.0 | 0.0 | 0.12 | 0.12 | 0.12 | 87 | |
| 20260505055602 | 55 | 323 | 0.0 | 0.0 | 0.12 | 0.11 | 0.11 | 86 | |
| 20260505055059 | 56 | 322 | 0.0 | 0.0 | 0.24 | 0.10 | 0.10 | 84 | |
| 20260505054557 | 57 | 307 | 0.0 | 1.0 | 0.31 | 0.08 | 0.08 | 80 | |
| 20260505054055 | 59 | 302 | 0.0 | 1.0 | 0.28 | 0.05 | 0.05 | 74 | |
| 20260505053551 | 62 | 321 | 2.0 | 7.0 | 0.12 | 0.02 | 0.02 | 67 | |
| 20260505053048 | 63 | 316 | 1.0 | 3.0 | 0.00 | 0.00 | 0.00 | 60 | |
| 20260505052545 | 63 | 293 | 2.0 | 5.0 | 0.00 | 0.00 | 0.00 | 60 | |
| 20260505052043 | 64 | 287 | 2.0 | 8.0 | 0.00 | 0.00 | 0.00 | 58 | |
| 20260505051539 | 65 | 321 | 2.0 | 5.0 | 0.00 | 0.00 | 0.00 | 55 | |
| 20260505051038 | 66 | 321 | 1.0 | 7.0 | 0.00 | 0.00 | 0.00 | 52 | |
| 20260505050535 | 68 | 256 | 5.0 | 7.0 | 0.00 | 0.00 | 0.00 | 47 | |
| 20260505041503 | 69 | 354 | 2.0 | 2.0 | 0.00 | 0.00 | 0.00 | 72 | |
| 20260505041001 | 69 | 333 | 2.0 | 3.0 | 0.00 | 0.00 | 0.00 | 72 | |
| 20260505040458 | 69 | 339 | 3.0 | 5.0 | 0.00 | 0.00 | 0.00 | 72 | |
| 20260505035954 | 70 | 338 | 1.0 | 3.0 | 0.00 | 0.00 | 0.00 | 71 | |
| 20260505035450 | 70 | 348 | 0.0 | 2.0 | 0.00 | 0.00 | 0.00 | 71 | |
| 20260505034948 | 70 | 348 | 1.0 | 2.0 | 0.00 | 0.00 | 0.00 | 71 | |
| 20260505034444 | 70 | 334 | 0.0 | 0.0 | 0.00 | 0.00 | 0.00 | 71 | |
| 20260505033941 | 70 | 334 | 1.0 | 1.0 | 0.00 | 0.00 | 0.00 | 71 | |
| 20260505033438 | 70 | 340 | 0.0 | 0.0 | 0.00 | 0.00 | 0.00 | 70 | |
| 20260505032936 | 70 | 330 | 0.0 | 0.0 | 0.00 | 0.00 | 0.00 | 69 | |
| 20260505032433 | 70 | 1 | 0.0 | 1.0 | 0.00 | 0.00 | 0.00 | 69 | |
| 20260505031929 | 71 | 330 | 0.0 | 0.0 | 0.00 | 0.00 | 0.00 | 68 | |
| 20260505031427 | 71 | 337 | 0.0 | 0.0 | 0.00 | 0.00 | 0.00 | 68 | |
| 20260505030923 | 71 | 331 | 0.0 | 0.0 | 0.00 | 0.00 | 0.00 | 67 | |
| 20260505030419 | 71 | 338 | 1.0 | 1.0 | 0.00 | 0.00 | 0.00 | 66 | |
| 20260505025915 | 71 | 336 | 0.0 | 0.0 | 0.00 | 0.00 | 0.00 | 66 | |
| 20260505025412 | 72 | 332 | 0.0 | 0.0 | 0.00 | 0.00 | 0.00 | 66 | |
| 20260505024911 | 71 | 332 | 0.0 | 0.0 | 0.00 | 0.00 | 0.00 | 66 | |
| 20260505024408 | 72 | 327 | 0.0 | 0.0 | 0.00 | 0.00 | 0.00 | 66 | |
| 20260505023905 | 71 | 350 | 0.0 | 0.0 | 0.00 | 0.00 | 0.00 | 65 | |
| 20260505023402 | 70 | 333 | 0.0 | 0.0 | 0.00 | 0.00 | 0.00 | 66 | |
| 20260505022859 | 70 | 329 | 0.0 | 0.0 | 0.00 | 0.00 | 0.00 | 67 | |
| 20260505022356 | 70 | 327 | 0.0 | 0.0 | 0.00 | 0.00 | 0.00 | 67 | |
| 20260505021854 | 70 | 327 | 0.0 | 0.0 | 0.00 | 0.00 | 0.00 | 66 | |
| 20260505021350 | 70 | 329 | 0.0 | 0.0 | 0.00 | 0.00 | 0.00 | 66 | |
| 20260505020846 | 70 | 329 | 0.0 | 0.0 | 0.00 | 0.00 | 0.00 | 65 | |
| 20260505020341 | 71 | 329 | 0.0 | 0.0 | 0.00 | 0.00 | 0.00 | 64 | |
| 20260505015839 | 70 | 329 | 0.0 | 0.0 | 0.00 | 0.00 | 0.00 | 64 | |
| 20260505015336 | 70 | 329 | 0.0 | 0.0 | 0.00 | 0.00 | 0.00 | 65 | |
| 20260505014833 | 70 | 329 | 0.0 | 0.0 | 0.00 | 0.00 | 0.00 | 65 | |
| 20260505014330 | 71 | 328 | 0.0 | 0.0 | 0.00 | 0.00 | 0.00 | 64 | |
| 20260505013826 | 71 | 328 | 0.0 | 0.0 | 0.00 | 0.00 | 0.00 | 64 | |
| 20260505013324 | 71 | 329 | 0.0 | 0.0 | 0.00 | 0.00 | 0.00 | 63 | |
| 20260505012822 | 72 | 328 | 0.0 | 0.0 | 0.00 | 0.00 | 0.00 | 62 | |
| 20260505012320 | 72 | 328 | 0.0 | 0.0 | 0.00 | 0.00 | 0.00 | 61 | |
| 20260505011815 | 73 | 329 | 0.0 | 0.0 | 0.00 | 0.00 | 0.00 | 60 | |
| 20260505011312 | 73 | 325 | 0.0 | 0.0 | 0.00 | 0.00 | 0.00 | 59 | |
| 20260505010808 | 73 | 320 | 0.0 | 0.0 | 0.00 | 0.00 | 0.00 | 59 | |
| 20260505010304 | 74 | 320 | 0.0 | 0.0 | 0.00 | 0.00 | 0.00 | 58 | |
| 20260505005801 | 74 | 320 | 0.0 | 0.0 | 0.00 | 0.00 | 0.00 | 57 | |
| 20260505005258 | 75 | 320 | 0.0 | 0.0 | 0.00 | 0.00 | 0.00 | 57 | |
| 20260505004755 | 75 | 320 | 0.0 | 0.0 | 0.00 | 0.00 | 0.00 | 57 | |
| 20260505004251 | 76 | 320 | 0.0 | 0.0 | 0.00 | 0.00 | 0.00 | 55 | |
| 20260505003749 | 76 | 320 | 0.0 | 0.0 | 0.00 | 0.00 | 0.00 | 54 | |
| 20260505003246 | 77 | 320 | 0.0 | 0.0 | 0.00 | 0.00 | 0.00 | 53 | |
| 20260505002742 | 77 | 320 | 0.0 | 0.0 | 0.00 | 0.00 | 0.00 | 53 | |
| 20260505002240 | 77 | 320 | 0.0 | 0.0 | 0.00 | 0.00 | 0.00 | 52 | |
| 20260505001737 | 78 | 320 | 0.0 | 0.0 | 0.00 | 0.00 | 0.00 | 52 | |
| 20260505001235 | 78 | 320 | 0.0 | 0.0 | 0.00 | 0.00 | 0.00 | 52 | |
| 20260505000731 | 77 | 320 | 0.0 | 0.0 | 0.00 | 0.00 | 0.00 | 52 | |
| 20260505000229 | 77 | 320 | 0.0 | 0.0 | 0.00 | 0.00 | 0.00 | 52 | |
| 20260504235726 | 77 | 320 | 0.0 | 0.0 | 0.00 | 0.00 | 0.00 | 52 | |
| 20260504235221 | 77 | 320 | 0.0 | 0.0 | 0.00 | 0.00 | 0.00 | 51 | |
| 20260504234719 | 78 | 320 | 0.0 | 0.0 | 0.00 | 0.00 | 0.00 | 50 | |
| 20260504234216 | 78 | 323 | 0.0 | 0.0 | 0.00 | 0.00 | 0.00 | 51 | |
| 20260504233712 | 78 | 324 | 0.0 | 0.0 | 0.00 | 0.00 | 0.00 | 50 | |
| 20260504233208 | 78 | 324 | 0.0 | 0.0 | 0.00 | 0.00 | 0.00 | 50 | |
| 20260504232706 | 78 | 320 | 0.0 | 0.0 | 0.00 | 0.00 | 0.00 | 50 | |
| 20260504232203 | 78 | 337 | 0.0 | 0.0 | 0.00 | 0.00 | 0.00 | 49 | |
| 20260504231659 | 79 | 75 | 0.0 | 1.0 | 0.00 | 0.00 | 0.00 | 47 | |
| 20260504231155 | 79 | 326 | 0.0 | 0.0 | 0.00 | 0.00 | 0.00 | 48 | |
| 20260504230652 | 80 | 6 | 0.0 | 1.0 | 0.00 | 0.00 | 0.00 | 47 | |
| 20260504230151 | 80 | 290 | 0.0 | 0.0 | 0.00 | 0.00 | 0.00 | 45 | |
| 20260504225649 | 80 | 290 | 0.0 | 3.0 | 0.00 | 0.00 | 0.00 | 47 | |
| 20260504225144 | 80 | 330 | 0.0 | 1.0 | 0.00 | 0.00 | 0.00 | 45 | |
| 20260504224642 | 80 | 312 | 0.0 | 2.0 | 0.00 | 0.00 | 0.00 | 48 | |
| 20260504224138 | 79 | 325 | 0.0 | 0.0 | 0.00 | 0.00 | 0.00 | 48 | |
| 20260504223636 | 80 | 304 | 1.0 | 2.0 | 0.00 | 0.00 | 0.00 | 48 | |
| 20260504223131 | 80 | 332 | 0.0 | 0.0 | 0.00 | 0.00 | 0.00 | 47 | |
| 20260504222628 | 80 | 224 | 0.0 | 0.0 | 0.00 | 0.00 | 0.00 | 47 | |
| 20260504222125 | 80 | 188 | 2.0 | 5.0 | 0.00 | 0.00 | 0.00 | 45 | |
| 20260504221623 | 80 | 315 | 0.0 | 1.0 | 0.00 | 0.00 | 0.00 | 46 | |
| 20260504221120 | 80 | 331 | 0.0 | 0.0 | 0.00 | 0.00 | 0.00 | 48 | |
| 20260504220616 | 79 | 313 | 0.0 | 0.0 | 0.00 | 0.00 | 0.00 | 51 | |
| 20260504220114 | 79 | 334 | 0.0 | 2.0 | 0.00 | 0.00 | 0.00 | 48 | |
| 20260504215609 | 79 | 265 | 1.0 | 2.0 | 0.00 | 0.00 | 0.00 | 49 | |
| 20260504215107 | 78 | 330 | 0.0 | 0.0 | 0.00 | 0.00 | 0.00 | 48 | |
| 20260504214603 | 78 | 328 | 0.0 | 1.0 | 0.00 | 0.00 | 0.00 | 49 | |
| 20260504214059 | 78 | 357 | 0.0 | 2.0 | 0.00 | 0.00 | 0.00 | 47 | |
| 20260504213556 | 79 | 79 | 0.0 | 1.0 | 0.00 | 0.00 | 0.00 | 48 | |
| 20260504213053 | 79 | 334 | 0.0 | 0.0 | 0.00 | 0.00 | 0.00 | 50 | |
| 20260504212549 | 79 | 339 | 0.0 | 0.0 | 0.00 | 0.00 | 0.00 | 48 | |
| 20260504212046 | 79 | 314 | 0.0 | 0.0 | 0.00 | 0.00 | 0.00 | 52 | |
| 20260504211543 | 78 | 254 | 0.0 | 1.0 | 0.00 | 0.00 | 0.00 | 49 | |
| 20260504211040 | 78 | 356 | 0.0 | 1.0 | 0.00 | 0.00 | 0.00 | 48 | |
| 20260504210537 | 78 | 322 | 0.0 | 0.0 | 0.00 | 0.00 | 0.00 | 50 | |
| 20260504210034 | 78 | 345 | 0.0 | 0.0 | 0.00 | 0.00 | 0.00 | 50 | |
| 20260504205532 | 78 | 312 | 0.0 | 1.0 | 0.00 | 0.00 | 0.00 | 49 | |
| 20260504205029 | 79 | 359 | 1.0 | 3.0 | 0.00 | 0.00 | 0.00 | 48 | |
| 20260504204527 | 79 | 319 | 0.0 | 0.0 | 0.00 | 0.00 | 0.00 | 48 | |
| 20260504204026 | 80 | 320 | 0.0 | 0.0 | 0.00 | 0.00 | 0.00 | 48 | |
| 20260504203524 | 80 | 0 | 3.0 | 3.0 | 0.00 | 0.00 | 0.00 | 48 | |
| 20260504203021 | 81 | 12 | 0.0 | 1.0 | 0.00 | 0.00 | 0.00 | 47 | |
| 20260504202516 | 81 | 326 | 0.0 | 3.0 | 0.00 | 0.00 | 0.00 | 49 | |
| 20260504202013 | 81 | 329 | 0.0 | 3.0 | 0.00 | 0.00 | 0.00 | 48 | |
| 20260504201510 | 82 | 336 | 0.0 | 3.0 | 0.00 | 0.00 | 0.00 | 45 | |
| 20260504201008 | 81 | 320 | 0.0 | 2.0 | 0.00 | 0.00 | 0.00 | 50 | |
| 20260504200504 | 81 | 317 | 0.0 | 1.0 | 0.00 | 0.00 | 0.00 | 45 | |
| 20260504200001 | 80 | 3 | 1.0 | 2.0 | 0.00 | 0.00 | 0.00 | 47 | |
| 20260504195457 | 81 | 20 | 2.0 | 6.0 | 0.00 | 0.00 | 0.00 | 46 | |
| 20260504194954 | 81 | 9 | 0.0 | 0.0 | 0.00 | 0.00 | 0.00 | 48 | |
| 20260504194450 | 81 | 325 | 0.0 | 1.0 | 0.00 | 0.00 | 0.00 | 48 | |
| 20260504193946 | 80 | 350 | 0.0 | 1.0 | 0.00 | 0.00 | 0.00 | 48 | |
| 20260504193443 | 81 | 25 | 2.0 | 7.0 | 0.00 | 0.00 | 0.00 | 48 | |
| 20260504192942 | 81 | 255 | 2.0 | 3.0 | 0.00 | 0.00 | 0.00 | 49 | |
| 20260504192439 | 81 | 359 | 1.0 | 5.0 | 0.00 | 0.00 | 0.00 | 49 | |
| 20260504191938 | 81 | 1 | 0.0 | 0.0 | 0.00 | 0.00 | 0.00 | 48 | |
| 20260504191435 | 81 | 345 | 2.0 | 2.0 | 0.00 | 0.00 | 0.00 | 47 | |
| 20260504190930 | 80 | 331 | 0.0 | 0.0 | 0.00 | 0.00 | 0.00 | 47 | |
| 20260504190426 | 79 | 328 | 0.0 | 6.0 | 0.00 | 0.00 | 0.00 | 49 | |
| 20260504185923 | 80 | 356 | 2.0 | 3.0 | 0.00 | 0.00 | 0.00 | 47 | |
| 20260504185421 | 79 | 334 | 1.0 | 2.0 | 0.00 | 0.00 | 0.00 | 47 | |
| 20260504184916 | 79 | 331 | 0.0 | 2.0 | 0.00 | 0.00 | 0.00 | 47 | |
| 20260504184412 | 79 | 20 | 1.0 | 2.0 | 0.00 | 0.00 | 0.00 | 46 | |
| 20260504183908 | 78 | 330 | 0.0 | 1.0 | 0.00 | 0.00 | 0.00 | 47 | |
| 20260504183406 | 78 | 323 | 0.0 | 2.0 | 0.00 | 0.00 | 0.00 | 53 | |
| 20260504182903 | 78 | 344 | 1.0 | 1.0 | 0.00 | 0.00 | 0.00 | 48 | |
| 20260504182400 | 78 | 237 | 0.0 | 3.0 | 0.00 | 0.00 | 0.00 | 49 | |
| 20260504181856 | 77 | 330 | 1.0 | 3.0 | 0.00 | 0.00 | 0.00 | 48 | |
| 20260504181354 | 77 | 188 | 1.0 | 3.0 | 0.00 | 0.00 | 0.00 | 51 | |
| 20260504180853 | 78 | 326 | 0.0 | 2.0 | 0.00 | 0.00 | 0.00 | 47 | |
| 20260504180351 | 77 | 326 | 0.0 | 2.0 | 0.00 | 0.00 | 0.00 | 49 | |
| 20260504175849 | 77 | 322 | 0.0 | 1.0 | 0.00 | 0.00 | 0.00 | 48 | |
| 20260504175345 | 77 | 317 | 2.0 | 3.0 | 0.00 | 0.00 | 0.00 | 49 | |
| 20260504174844 | 77 | 324 | 0.0 | 1.0 | 0.00 | 0.00 | 0.00 | 53 | |
| 20260504174341 | 76 | 335 | 0.0 | 2.0 | 0.00 | 0.00 | 0.00 | 52 | |
| 20260504173838 | 75 | 333 | 0.0 | 3.0 | 0.00 | 0.00 | 0.00 | 51 | |
| 20260504173334 | 76 | 331 | 1.0 | 3.0 | 0.00 | 0.00 | 0.00 | 51 | |
| 20260504172831 | 75 | 326 | 0.0 | 3.0 | 0.00 | 0.00 | 0.00 | 51 | |
| 20260504172328 | 75 | 331 | 0.0 | 0.0 | 0.00 | 0.00 | 0.00 | 52 | |
| 20260504171824 | 75 | 338 | 0.0 | 0.0 | 0.00 | 0.00 | 0.00 | 53 | |
| 20260504171321 | 75 | 317 | 1.0 | 2.0 | 0.00 | 0.00 | 0.00 | 51 | |
| 20260504170818 | 75 | 312 | 0.0 | 0.0 | 0.00 | 0.00 | 0.00 | 54 | |
| 20260504170315 | 75 | 25 | 3.0 | 3.0 | 0.00 | 0.00 | 0.00 | 50 | |
| 20260504160233 | 73 | 339 | 2.0 | 3.0 | 0.00 | 0.00 | 0.00 | 52 | |
| 20260504150659 | 68 | 333 | 2.0 | 2.0 | 0.00 | 0.00 | 0.00 | 56 | |
| 20260504150156 | 68 | 58 | 1.0 | 2.0 | 0.00 | 0.00 | 0.00 | 57 | |
| 20260504141124 | 65 | 335 | 0.0 | 0.0 | 0.00 | 0.00 | 0.00 | 62 | |
| 20260504140621 | 65 | 329 | 0.0 | 0.0 | 0.00 | 0.00 | 0.00 | 61 | |
| 20260504140117 | 65 | 329 | 0.0 | 0.0 | 0.00 | 0.00 | 0.00 | 61 | |
| 20260504130545 | 64 | 17 | 3.0 | 6.0 | 0.00 | 0.00 | 0.00 | 59 |